Regional Weather Roundup
Issued by NWS State College, PA

Home | Current Version | Previous Version | Text Only | Print | Product List | Glossary On
Versions: 1 2 3 4 5 6 7 8 9 10 11 12 13 14 15 16 17 18 19 20 21 22 23 24 25 26 27 28 29 30 31 32 33 34 35 36 37 38 39 40 41 42 43 44 45 46 47 48 49 50
000
ASUS41 KCTP 220910
RWRCTP

REGIONAL WEATHER ROUNDUP
NATIONAL WEATHER SERVICE STATE COLLEGE PA
500 AM EDT MON SEP 22 2014

Note: "fair" indicates few or no clouds below 12,000 feet with no
significant weather and/or obstructions to visibility.

* = STATION THAT DOES NOT REPORT PRECIPITATION /E.G. RAIN...SNOW...ETC/
    THUNDER OR FOG.

PAZ002>004-007>009-013>016-020>023-029>032-221000-
WESTERN PENNSYLVANIA

CITY           SKY/WX    TMP DP  RH WIND       PRES   REMARKS
ERIE           CLOUDY    54  45  71 N12G21    29.96R
MEADVILLE      MOCLDY    49  46  90 NW9       29.95R
FRANKLIN*      CLOUDY    48  45  87 NW15      29.95R
NEW CASTLE     NOT AVBL
BEAVER COUNTY  NOT AVBL
BUTLER*        MOCLDY    52  45  76 NW7       29.97R
PITTSBURGH INT CLOUDY    53  47  79 NW13      29.97R
PITTSBURGH     CLOUDY    54  46  74 NW10      29.95R
INDIANA*       CLOUDY    52  50  93 NW7G17    29.97R
LATROBE        CLOUDY    54  50  87 W3        29.96R
WASHINGTON CO* CLOUDY    54  46  76 W6        29.99R
$$

PAZ004>006-010>012-017>019-024>028-033>037-041-042-045-046-049>053-221000-
CENTRAL PENNSYLVANIA

CITY           SKY/WX    TMP DP  RH WIND       PRES   REMARKS
BRADFORD       CLOUDY    47  44  90 NW9       29.87R
DUBOIS         CLOUDY    49  46  90 W9G18     29.89R
CLEARFIELD     MOCLDY    51  46  83 W10       29.88R
JOHNSTOWN      CLOUDY    49  46  90 NW15G25   29.91R
ALTOONA        RAIN      52  51  97 W9        29.91R FOG
STATE COLLEGE  MOCLDY    55  47  75 W5        29.86R
WILLIAMSPORT   RAIN      60  50  69 W14       29.78R
SELINSGROVE    CLOUDY    62  48  60 MISG      29.82R
FT INDIANTOWN  CLEAR     62  50  64 W7        29.81R
CAPITAL CITY   CLEAR     61  47  59 W10       29.82R
HARRISBURG     PTCLDY    62  49  62 NW16      29.81R
YORK           CLEAR     59  49  69 SW5       29.84R
$$

PAZ038>040-043-044-047-048-054-055-060>062-067>071-221000-
EASTERN PENNSYLVANIA

CITY           SKY/WX    TMP DP  RH WIND       PRES   REMARKS
SCRANTON       CLOUDY    57  52  83 SW6       29.76R
MOUNT POCONO   PTCLDY    53 N/A N/A W14       29.75R
ALLENTOWN      CLEAR     61  50  67 W6        29.75R
QUAKERTOWN*    SUNNY     61  52  72 W7        29.78R
READING        CLEAR     61  50  67 SW7       29.79R
LANCASTER      CLEAR     57  50  77 W9        29.81R
COATESVILLE    SUNNY     59  52  77 W6        29.81R
POTTSTOWN      CLEAR     61  51  70 VRB3      29.79R
BLUE BELL      CLEAR     63  54  72 W3        29.76R
DOYLESTOWN     CLEAR     62  53  72 W8        29.75R
WILLOW GROVE   NOT AVBL
NORTH PHILA    CLEAR     64  54  69 W10       29.77R
PHILADELPHIA   PTCLDY    65  56  72 W12       29.77R
$$



USA.gov is the U.S. government's official web portal to all federal, state and local government web resources and services.